Location: Sungai Bunut
(2.6333°N, 113.7333°E)
Time: 11:19:10
(UTC+00:00)

Transit 2A - Pass Details

Date: 04 December 2023
Orbit: 599 x 953 km, 66.7° (Epoch: 01 March)

Event Time Altitude Azimuth Distance (km) Brightness Sun altitude
Rises 19:26:18 0° 306° (NW) 2,969 - -39.7°
Reaches altitude 10° 19:29:29 10° 282° (WNW) 2,123 - -39.0°
Maximum altitude 19:32:08 15° 248° (WSW) 1,879 - -38.4°
Drops below altitude 10° 19:34:56 10° 214° (SW) 2,249 - -37.8°
Exits shadow 19:38:15 - 192° (SSW) 3,187 9.4 -37.0°
Sets 19:38:29 0° 191° (SSW) 3,261 9.4 -37.0°
